EW2964 Weather Reports


Display with metric or nautical units.
time (UTC)temp
F
wind
direction
speed
MPH
gust
MPH
rain 1hr
in
rain 24hr
in
rain mn
in
humidity
%
barometer
mb
20260901091539 64 313 0.0 0.0 0.00 0.00 0.00 98 1022.0
20260901090035 64 313 0.0 0.0 0.00 0.00 0.00 98 1021.9
20260901084523 64 313 0.0 0.0 0.00 0.00 0.00 98 1022.0
20260901083029 64 313 0.0 0.0 0.00 0.00 0.00 98 1021.8
20260901081537 64 313 0.0 0.0 0.00 0.00 0.00 98 1021.9
20260901081403 65 313 0.0 0.0 0.00 0.00 0.00 96 1021.1
20260901080903 65 313 0.0 0.0 0.00 0.00 0.00 99 1021.2
20260901080402 65 313 0.0 0.0 0.00 0.00 0.00 100 1021.2
20260901080019 64 313 0.0 0.0 0.00 0.00 0.00 98 1022.0
20260901075903 65 313 0.0 0.0 0.00 0.00 0.00 100 1021.2
20260901074902 65 313 0.0 0.0 0.00 0.00 0.00 96 1021.3
20260901074523 64 313 0.0 0.0 0.00 0.00 0.00 98 1022.0
20260901074403 65 313 0.0 0.0 0.00 0.00 0.00 96 1021.4
20260901073902 65 313 0.0 0.0 0.00 0.00 0.00 99 1021.4
20260901073403 65 313 0.0 0.0 0.00 0.00 0.00 100 1021.3
20260901073010 64 313 0.0 0.0 0.00 0.00 0.00 98 1022.0
20260901072902 65 313 0.0 0.0 0.00 0.00 0.00 100 1021.4
20260901072403 65 313 0.0 0.0 0.00 0.00 0.00 100 1021.4
20260901071902 65 313 0.0 0.0 0.00 0.00 0.00 100 1021.4
20260901071507 64 313 0.0 0.0 0.00 0.00 0.00 98 1022.1
20260901071403 65 313 0.0 0.0 0.00 0.00 0.00 100 1021.4
20260901070903 64 313 0.0 0.0 0.00 0.00 0.00 100 1021.3
20260901070403 64 313 0.0 2.0 0.00 0.00 0.00 100 1021.4
20260901070015 64 313 0.0 3.0 0.00 0.00 0.00 98 1022.1
20260901065902 64 313 1.0 3.0 0.00 0.00 0.00 100 1021.4
20260901065402 64 313 2.0 3.0 0.00 0.00 0.00 96 1021.3
20260901064902 64 313 2.0 3.0 0.00 0.00 0.00 96 1021.3
20260901064524 64 302 1.0 2.0 0.00 0.00 0.00 98 1022.0
20260901064402 64 302 1.0 2.0 0.00 0.00 0.00 96 1021.3
20260901063903 64 302 0.0 3.0 0.00 0.00 0.00 96 1021.3
20260901063403 64 302 1.0 3.0 0.00 0.00 0.00 96 1021.3
20260901063034 64 302 1.0 3.0 0.00 0.00 0.00 98 1022.1
20260901062902 64 302 1.0 3.0 0.00 0.00 0.00 96 1021.3
20260901062403 64 304 2.0 3.0 0.00 0.00 0.00 96 1021.3
20260901061903 64 294 1.0 3.0 0.00 0.00 0.00 96 1021.4
20260901061505 64 279 1.0 3.0 0.00 0.00 0.00 98 1022.1
20260901061403 64 316 1.0 3.0 0.00 0.00 0.00 96 1021.3
20260901060903 64 316 3.0 3.0 0.00 0.00 0.00 96 1021.4
20260901060009 64 316 1.0 3.0 0.00 0.00 0.00 98 1022.2
20260901055902 64 316 1.0 2.0 0.00 0.00 0.00 96 1021.5
20260901055403 64 316 1.0 2.0 0.00 0.00 0.00 96 1021.5
20260901054903 64 316 2.0 3.0 0.00 0.00 0.00 96 1021.6
20260901054529 64 316 2.0 3.0 0.00 0.00 0.00 98 1022.4
20260901054403 64 316 2.0 3.0 0.00 0.00 0.00 96 1021.5
20260901053903 64 316 1.0 3.0 0.00 0.00 0.00 96 1021.5
20260901053403 65 316 1.0 2.0 0.00 0.00 0.00 96 1021.6
20260901053021 64 316 1.0 2.0 0.00 0.00 0.00 97 1022.5
20260901052903 65 316 2.0 2.0 0.00 0.00 0.00 96 1021.5
20260901052403 65 316 0.0 2.0 0.00 0.00 0.00 96 1021.6
20260901051902 65 316 0.0 2.0 0.00 0.00 0.00 96 1021.7
20260901051524 65 316 0.0 4.0 0.00 0.00 0.00 97 1022.5
20260901051402 65 316 2.0 3.0 0.00 0.00 0.00 96 1021.6
20260901050903 65 307 3.0 5.0 0.00 0.00 0.00 96 1021.6
20260901050402 65 293 3.0 6.0 0.00 0.00 0.00 96 1021.6
20260901050007 65 285 3.0 6.0 0.00 0.00 0.00 98 1022.5
20260901045403 65 304 2.0 3.0 0.00 0.00 0.00 96 1021.6
20260901044903 65 304 1.0 2.0 0.00 0.00 0.00 96 1021.6
20260901044515 65 304 1.0 2.0 0.00 0.00 0.00 97 1022.5
20260901043903 65 304 0.0 1.0 0.00 0.00 0.00 95 1021.7
20260901043402 65 304 1.0 2.0 0.00 0.00 0.00 96 1021.7
20260901043022 65 304 0.0 3.0 0.00 0.00 0.00 97 1022.5
20260901042902 65 304 1.0 3.0 0.00 0.00 0.00 95 1021.7
20260901042402 65 304 2.0 3.0 0.00 0.00 0.00 95 1021.8
20260901041902 66 304 2.0 3.0 0.00 0.00 0.00 95 1021.8
20260901041524 65 302 1.0 3.0 0.00 0.00 0.00 97 1022.6
20260901041403 66 302 2.0 3.0 0.00 0.00 0.00 96 1021.8
20260901040904 66 282 2.0 3.0 0.00 0.00 0.00 96 1021.9
20260901040402 66 286 1.0 2.0 0.00 0.00 0.00 95 1021.9
20260901040032 65 298 1.0 3.0 0.00 0.00 0.00 97 1022.7
20260901035902 66 265 1.0 3.0 0.00 0.00 0.00 95 1022.0
20260901034902 66 304 3.0 3.0 0.00 0.00 0.00 95 1022.1
20260901034518 66 254 0.0 0.0 0.00 0.00 0.00 97 1022.9
20260901034403 66 254 0.0 0.0 0.00 0.00 0.00 95 1022.1
20260901033902 66 254 0.0 0.0 0.00 0.00 0.00 95 1022.2
20260901033403 66 254 0.0 0.0 0.00 0.00 0.00 95 1022.1
20260901033017 66 254 0.0 0.0 0.00 0.00 0.00 96 1023.0
20260901032903 66 254 0.0 0.0 0.00 0.00 0.00 95 1022.2
20260901032402 66 254 0.0 0.0 0.00 0.00 0.00 95 1022.2
20260901031903 66 303 0.0 1.0 0.00 0.00 0.00 95 1022.2
20260901031528 66 303 0.0 2.0 0.00 0.00 0.00 96 1023.0
20260901031403 66 303 1.0 2.0 0.00 0.00 0.00 94 1022.2
20260901030903 66 303 1.0 2.0 0.00 0.00 0.00 94 1022.2
20260901030403 66 303 1.0 2.0 0.00 0.00 0.00 94 1022.2
20260901030027 66 269 0.0 3.0 0.00 0.00 0.00 96 1023.0
20260901025403 67 269 1.0 3.0 0.00 0.00 0.00 94 1022.2
20260901024903 67 269 1.0 2.0 0.00 0.00 0.00 94 1022.2
20260901024528 66 269 0.0 0.0 0.00 0.00 0.00 96 1023.0
20260901024403 67 269 0.0 0.0 0.00 0.00 0.00 94 1022.2
20260901023903 67 269 0.0 1.0 0.00 0.00 0.00 94 1022.2
20260901023403 67 269 0.0 2.0 0.00 0.00 0.00 94 1022.3
20260901023019 66 269 0.0 3.0 0.00 0.00 0.00 96 1023.0
20260901022903 67 269 1.0 2.0 0.00 0.00 0.00 94 1022.2
20260901021903 67 282 1.0 2.0 0.00 0.00 0.00 94 1022.3
20260901021518 66 282 1.0 3.0 0.00 0.00 0.00 96 1023.0
20260901020902 67 276 2.0 3.0 0.00 0.00 0.00 94 1022.2
20260901020027 66 300 0.0 1.0 0.00 0.00 0.00 95 1022.8
20260901015402 67 300 0.0 2.0 0.00 0.00 0.00 93 1022.2
20260901014902 67 300 0.0 1.0 0.00 0.00 0.00 93 1022.2
20260901014530 67 300 0.0 3.0 0.00 0.00 0.00 94 1022.8
20260901014402 67 300 1.0 3.0 0.00 0.00 0.00 93 1022.2
20260901013903 67 249 1.0 2.0 0.00 0.00 0.00 93 1022.1
20260901013403 68 249 0.0 1.0 0.00 0.00 0.00 93 1022.1
20260901013052 67 249 0.0 3.0 0.00 0.00 0.00 94 1022.7
20260901012903 68 249 1.0 3.0 0.00 0.00 0.00 92 1022.0
20260901012403 68 249 1.0 2.0 0.00 0.00 0.00 92 1021.8
20260901011515 68 249 0.0 2.0 0.00 0.00 0.00 93 1022.5
20260901011403 68 249 1.0 2.0 0.00 0.00 0.00 91 1021.6
20260901010903 68 249 1.0 2.0 0.00 0.00 0.00 91 1021.5
20260901010403 69 249 1.0 2.0 0.00 0.00 0.00 90 1021.4
20260901010024 68 249 0.0 2.0 0.00 0.00 0.00 92 1022.2
20260901005902 69 236 0.0 0.0 0.00 0.00 0.00 90 1021.3
20260901005403 69 234 0.0 2.0 0.00 0.00 0.00 90 1021.3
20260901004902 69 310 1.0 5.0 0.00 0.00 0.00 90 1021.2
20260901004530 69 319 2.0 7.0 0.00 0.00 0.00 91 1021.9
20260901004402 69 281 2.0 3.0 0.00 0.00 0.00 90 1021.2
20260901003902 69 307 3.0 7.0 0.00 0.00 0.00 89 1021.2
20260901003403 70 289 4.0 6.0 0.00 0.00 0.00 89 1021.2
20260901003033 69 294 2.0 7.0 0.00 0.00 0.00 90 1022.0
20260901002903 70 275 3.0 6.0 0.00 0.00 0.00 89 1021.1
20260901002402 70 274 5.0 7.0 0.00 0.00 0.00 88 1021.1
20260901001536 70 264 3.0 4.0 0.00 0.00 0.00 89 1021.8
20260901001403 71 260 3.0 5.0 0.00 0.00 0.00 87 1021.1
20260901000903 71 308 1.0 3.0 0.00 0.00 0.00 86 1021.0
20260901000017 71 317 2.0 4.0 0.00 0.00 0.00 85 1021.9
20260831235903 72 299 3.0 5.0 0.00 0.00 0.00 83 1021.0
20260831235403 72 298 3.0 5.0 0.00 0.00 0.00 82 1021.0
20260831234523 72 310 2.0 4.0 0.00 0.00 0.00 82 1021.9
20260831234403 73 308 2.0 5.0 0.00 0.00 0.00 81 1021.1
20260831233903 73 321 2.0 5.0 0.00 0.00 0.00 80 1021.1
20260831233403 74 249 3.0 5.0 0.00 0.00 0.00 80 1021.1
20260831233028 73 297 2.0 3.0 0.00 0.00 0.00 80 1022.0
20260831232903 74 300 2.0 3.0 0.00 0.00 0.00 78 1021.0
20260831232402 75 300 3.0 3.0 0.00 0.00 0.00 77 1021.1
20260831231513 75 264 0.0 4.0 0.00 0.00 0.00 79 1021.9
20260831231403 75 264 1.0 2.0 0.00 0.00 0.00 77 1021.1
20260831230903 75 246 3.0 5.0 0.00 0.00 0.00 77 1021.2
20260831230403 75 209 2.0 3.0 0.00 0.00 0.00 76 1021.3
20260831230018 75 217 1.0 4.0 0.00 0.00 0.00 77 1022.2
20260831225903 76 195 1.0 2.0 0.00 0.00 0.00 76 1021.3
20260831225402 76 272 2.0 5.0 0.00 0.00 0.00 75 1021.3
20260831224903 76 305 2.0 5.0 0.00 0.00 0.00 75 1021.4
20260831224516 76 315 2.0 7.0 0.00 0.00 0.00 76 1022.2
20260831224403 77 314 3.0 7.0 0.00 0.00 0.00 75 1021.3
20260831223903 77 308 3.0 7.0 0.00 0.00 0.00 74 1021.2
20260831223403 76 302 6.0 9.0 0.00 0.00 0.00 74 1021.2
20260831223018 76 301 2.0 9.0 0.00 0.00 0.00 83 1022.2
20260831222902 76 298 3.0 7.0 0.00 0.00 0.00 82 1021.5
20260831222403 77 280 5.0 7.0 0.00 0.00 0.00 84 1021.6
20260831221903 77 296 1.0 6.0 0.00 0.00 0.00 82 1021.5
20260831221515 77 269 3.0 6.0 0.00 0.00 0.00 84 1022.3
20260831221403 78 301 2.0 5.0 0.00 0.00 0.00 82 1021.3
20260831220903 78 256 1.0 3.0 0.00 0.00 0.00 82 1021.5
20260831220021 78 305 2.0 3.0 0.00 0.00 0.00 82 1022.1
20260831215903 79 266 2.0 3.0 0.00 0.00 0.00 80 1021.3
20260831215402 79 305 2.0 3.0 0.00 0.00 0.00 79 1021.4
20260831214903 80 288 1.0 2.0 0.00 0.00 0.00 78 1021.5
20260831214523 79 265 1.0 3.0 0.00 0.00 0.00 78 1022.2
20260831214402 80 260 1.0 3.0 0.00 0.00 0.00 76 1021.6
20260831213902 81 227 1.0 2.0 0.00 0.00 0.00 74 1021.5
20260831213403 81 227 1.0 2.0 0.00 0.00 0.00 73 1021.5
20260831213019 81 310 0.0 4.0 0.00 0.00 0.00 72 1022.2
20260831212903 82 310 2.0 5.0 0.00 0.00 0.00 70 1021.4
20260831212402 82 310 2.0 5.0 0.00 0.00 0.00 68 1021.2
20260831211903 82 232 2.0 6.0 0.00 0.00 0.00 70 1021.2
20260831211517 82 319 2.0 5.0 0.00 0.00 0.00 67 1022.0
20260831211403 83 306 3.0 6.0 0.00 0.00 0.00 65 1021.2
20260831210903 83 264 2.0 5.0 0.00 0.00 0.00 65 1021.3
20260831210403 82 303 5.0 6.0 0.00 0.00 0.00 66 1021.5
20260831210019 81 13 3.0 8.0 0.00 0.00 0.00 67 1022.2
20260831205903 81 332 5.0 7.0 0.00 0.00 0.00 66 1021.4
20260831205403 81 327 5.0 8.0 0.00 0.00 0.00 67 1021.4
20260831204521 82 321 1.0 8.0 0.00 0.00 0.00 66 1022.3
20260831204402 82 40 1.0 5.0 0.00 0.00 0.00 66 1021.4
20260831203902 82 302 5.0 8.0 0.00 0.00 0.00 64 1021.5
20260831203403 82 310 1.0 3.0 0.00 0.00 0.00 65 1021.5
20260831203020 81 333 1.0 9.0 0.00 0.00 0.00 67 1022.3
20260831202903 82 325 2.0 5.0 0.00 0.00 0.00 66 1021.6
20260831202403 82 304 5.0 9.0 0.00 0.00 0.00 63 1021.6
20260831201903 82 309 1.0 9.0 0.00 0.00 0.00 64 1021.6
20260831201522 82 44 4.0 11.0 0.00 0.00 0.00 64 1022.4
20260831201403 83 298 3.0 7.0 0.00 0.00 0.00 64 1021.6
20260831200403 82 304 6.0 10.0 0.00 0.00 0.00 66 1021.8
20260831200044 82 15 2.0 9.0 0.00 0.00 0.00 67 1022.5
20260831195903 82 2 5.0 9.0 0.00 0.00 0.00 64 1021.8
20260831194903 81 206 1.0 3.0 0.00 0.00 0.00 69 1021.7
20260831194519 81 213 1.0 7.0 0.00 0.00 0.00 70 1022.5
20260831194403 81 187 1.0 3.0 0.00 0.00 0.00 67 1021.9
20260831193902 81 258 2.0 7.0 0.00 0.00 0.00 67 1021.9
20260831193402 81 234 2.0 6.0 0.00 0.00 0.00 67 1022.0
20260831193017 81 247 2.0 8.0 0.00 0.00 0.00 68 1022.7
20260831192903 81 213 2.0 8.0 0.00 0.00 0.00 68 1022.1
20260831192403 81 270 2.0 8.0 0.00 0.00 0.00 69 1022.1
20260831191903 81 247 4.0 7.0 0.00 0.00 0.00 68 1022.2
20260831191523 80 257 3.0 7.0 0.00 0.00 0.00 69 1022.9
20260831190902 81 268 2.0 6.0 0.00 0.00 0.00 68 1022.4
20260831190402 80 272 4.0 8.0 0.00 0.00 0.00 69 1022.4
20260831190035 80 183 2.0 6.0 0.00 0.00 0.00 72 1023.2
20260831185903 80 202 4.0 7.0 0.00 0.00 0.00 70 1022.5
20260831185403 80 15 2.0 8.0 0.00 0.00 0.00 69 1022.6
20260831184903 80 252 3.0 8.0 0.00 0.00 0.00 72 1022.5
20260831184527 80 242 3.0 8.0 0.00 0.00 0.00 72 1023.3
20260831184403 80 209 6.0 9.0 0.00 0.00 0.00 70 1022.5
20260831183903 80 307 1.0 3.0 0.00 0.00 0.00 73 1022.6
20260831183403 79 244 1.0 3.0 0.00 0.00 0.00 73 1022.7
20260831183012 79 216 1.0 3.0 0.00 0.00 0.00 75 1023.5
20260831182902 79 259 1.0 3.0 0.00 0.00 0.00 74 1022.7
20260831182402 79 277 1.0 3.0 0.00 0.00 0.00 74 1022.8
20260831181525 78 247 2.0 4.0 0.00 0.00 0.00 76 1023.6
20260831180903 79 214 1.0 3.0 0.00 0.00 0.00 74 1022.7
20260831180402 78 209 2.0 5.0 0.00 0.00 0.00 75 1022.8
20260831180030 78 265 1.0 4.0 0.00 0.00 0.00 77 1023.6
20260831175902 78 297 2.0 3.0 0.00 0.00 0.00 76 1022.8
20260831175403 78 239 2.0 6.0 0.00 0.00 0.00 78 1022.7
20260831174902 78 269 1.0 3.0 0.00 0.00 0.00 79 1022.8
20260831174528 78 269 0.0 3.0 0.00 0.00 0.00 82 1023.6
20260831174403 78 263 0.0 3.0 0.00 0.00 0.00 80 1022.8
20260831173403 78 223 0.0 3.0 0.00 0.00 0.00 83 1022.8
20260831173033 77 223 2.0 3.0 0.00 0.00 0.00 85 1023.6
20260831172903 77 254 1.0 3.0 0.00 0.00 0.00 84 1022.9
20260831172402 77 317 2.0 3.0 0.00 0.00 0.00 85 1022.7
20260831171903 77 327 0.0 3.0 0.00 0.00 0.00 82 1022.8
20260831171517 77 330 0.0 3.0 0.00 0.00 0.00 87 1023.6
20260831171403 77 330 1.0 2.0 0.00 0.00 0.00 82 1022.8
20260831170902 77 330 2.0 3.0 0.00 0.00 0.00 85 1022.8
20260831170403 77 300 0.0 1.0 0.00 0.00 0.00 85 1022.9
20260831170032 76 300 0.0 3.0 0.00 0.00 0.00 87 1023.7
20260831165902 77 300 1.0 3.0 0.00 0.00 0.00 85 1022.9
20260831165402 77 300 1.0 3.0 0.00 0.00 0.00 83 1022.9
20260831164903 77 300 0.0 2.0 0.00 0.00 0.00 83 1022.9
20260831164529 77 300 0.0 2.0 0.00 0.00 0.00 85 1023.7
20260831164403 78 94 0.0 2.0 0.00 0.00 0.00 83 1022.9
20260831163903 78 94 0.0 2.0 0.00 0.00 0.00 82 1022.9
20260831163403 78 94 1.0 2.0 0.00 0.00 0.00 82 1022.9
20260831163032 77 94 0.0 1.0 0.00 0.00 0.00 82 1023.7
20260831162904 78 94 0.0 1.0 0.00 0.00 0.00 81 1023.0
20260831162403 78 94 0.0 0.0 0.00 0.00 0.00 81 1023.1
20260831161902 78 94 0.0 2.0 0.00 0.00 0.00 81 1023.0
20260831161532 77 94 0.0 2.0 0.00 0.00 0.00 82 1023.9
20260831160903 77 94 1.0 2.0 0.00 0.00 0.00 81 1023.1
20260831160403 77 93 1.0 2.0 0.00 0.00 0.00 81 1023.0
20260831160021 76 144 0.0 4.0 0.00 0.00 0.00 83 1023.8
20260831155902 77 144 1.0 5.0 0.00 0.00 0.00 81 1023.0
20260831155403 77 155 3.0 6.0 0.00 0.00 0.00 81 1023.0
20260831154903 77 121 3.0 6.0 0.00 0.00 0.00 81 1023.0
20260831154552 76 82 1.0 5.0 0.00 0.00 0.00 83 1023.7
20260831154403 77 144 2.0 5.0 0.00 0.00 0.00 82 1022.9
20260831153903 77 115 3.0 5.0 0.00 0.00 0.00 82 1022.9
20260831153403 76 113 4.0 6.0 0.00 0.00 0.00 82 1023.0
20260831153030 76 59 1.0 5.0 0.00 0.00 0.00 84 1023.7
20260831152903 76 92 3.0 6.0 0.00 0.00 0.00 82 1023.1
20260831152403 75 114 2.0 5.0 0.00 0.00 0.00 85 1023.1
20260831151903 74 103 1.0 3.0 0.00 0.00 0.00 86 1023.1
20260831151530 74 117 1.0 3.0 0.00 0.00 0.00 88 1024.0
20260831151403 74 126 2.0 3.0 0.00 0.00 0.00 87 1023.2
20260831150903 73 111 1.0 3.0 0.00 0.00 0.00 87 1023.2
20260831150033 73 129 1.0 2.0 0.00 0.00 0.00 88 1024.1
20260831145903 73 129 1.0 2.0 0.00 0.00 0.00 87 1023.3
20260831145403 73 129 1.0 2.0 0.00 0.00 0.00 88 1023.3
20260831144524 72 129 0.0 2.0 0.00 0.00 0.00 89 1024.1
20260831144403 72 129 1.0 2.0 0.00 0.00 0.00 88 1023.3
20260831143902 72 129 1.0 2.0 0.00 0.00 0.00 88 1023.3
20260831143027 71 129 1.0 3.0 0.00 0.00 0.00 90 1024.0
20260831142903 72 79 1.0 3.0 0.00 0.00 0.00 88 1023.3
20260831142402 71 61 1.0 2.0 0.00 0.00 0.00 89 1023.1
20260831141904 71 61 1.0 2.0 0.00 0.00 0.00 89 1023.1
20260831141510 70 61 1.0 3.0 0.00 0.00 0.00 91 1023.8
20260831141403 70 61 2.0 3.0 0.00 0.00 0.00 90 1022.9
20260831140902 70 61 2.0 3.0 0.00 0.00 0.00 91 1022.9
20260831140403 70 126 1.0 3.0 0.00 0.00 0.00 91 1022.9
20260831140030 69 126 1.0 3.0 0.00 0.00 0.00 93 1023.7
20260831135902 69 126 2.0 3.0 0.00 0.00 0.00 91 1023.0
20260831135402 69 63 1.0 3.0 0.00 0.00 0.00 92 1023.1
20260831134903 69 61 0.0 3.0 0.00 0.00 0.00 92 1023.1
20260831134519 68 138 0.0 3.0 0.00 0.00 0.00 94 1023.9
20260831134402 69 138 1.0 3.0 0.00 0.00 0.00 92 1023.1
20260831133903 68 84 0.0 0.0 0.00 0.00 0.00 93 1023.2
20260831133403 68 303 0.0 0.0 0.00 0.00 0.00 93 1023.1
20260831133003 67 303 0.0 0.0 0.00 0.00 0.00 95 1023.8
20260831131903 67 303 0.0 0.0 0.00 0.00 0.00 94 1023.0
20260831131507 67 303 0.0 0.0 0.00 0.00 0.00 98 1023.8
20260831131403 67 303 0.0 0.0 0.00 0.00 0.00 96 1023.0
20260831130403 66 303 0.0 1.0 0.00 0.00 0.00 96 1023.2
20260831130010 65 304 0.0 1.0 0.00 0.00 0.00 98 1023.8
20260831125902 66 303 0.0 1.0 0.00 0.00 0.00 100 1023.2
20260831125403 66 303 0.0 1.0 0.00 0.00 0.00 100 1023.2
20260831124903 65 303 0.0 1.0 0.00 0.00 0.00 100 1023.0
20260831124516 64 303 0.0 1.0 0.00 0.00 0.00 98 1023.8
20260831124403 65 303 0.0 1.0 0.00 0.00 0.00 100 1023.1
20260831123026 63 303 0.0 1.0 0.00 0.00 0.00 98 1023.8
20260831122904 64 303 0.0 0.0 0.00 0.00 0.00 100 1023.0
20260831121503 63 303 0.0 2.0 0.00 0.00 0.00 98 1023.7
20260831121403 63 303 0.0 2.0 0.00 0.00 0.00 100 1023.0
20260831120903 63 303 1.0 2.0 0.00 0.00 0.00 100 1022.9
20260831120403 63 303 1.0 2.0 0.00 0.00 0.00 100 1022.9
20260831120017 62 303 0.0 1.0 0.00 0.00 0.00 98 1023.6
20260831115903 63 303 0.0 1.0 0.00 0.00 0.00 100 1022.8
20260831114903 62 303 0.0 1.0 0.00 0.00 0.00 100 1022.8
20260831114516 62 303 0.0 2.0 0.00 0.00 0.00 98 1023.6
20260831114403 62 303 1.0 2.0 0.00 0.00 0.00 100 1022.8
20260831113903 62 303 1.0 2.0 0.00 0.00 0.00 100 1022.8
20260831113402 62 303 0.0 2.0 0.00 0.00 0.00 100 1022.7
20260831113023 61 303 0.0 0.0 0.00 0.00 0.00 98 1023.5
20260831112903 62 303 0.0 0.0 0.00 0.00 0.00 100 1022.7
20260831112403 62 303 0.0 0.0 0.00 0.00 0.00 100 1022.6
20260831111903 62 303 0.0 0.0 0.00 0.00 0.00 100 1022.5
20260831111530 61 303 0.0 2.0 0.00 0.01 0.00 98 1023.3
20260831110903 62 303 1.0 2.0 0.00 0.01 0.00 96 1022.4
20260831110403 62 303 2.0 3.0 0.00 0.01 0.00 100 1022.4
20260831110006 61 273 1.0 2.0 0.00 0.01 0.00 98 1023.1
20260831105903 62 273 1.0 2.0 0.00 0.01 0.00 96 1022.4
20260831105403 62 273 1.0 2.0 0.00 0.01 0.00 96 1022.3
20260831104902 62 273 0.0 2.0 0.00 0.01 0.00 96 1022.3
20260831104517 61 273 0.0 2.0 0.00 0.01 0.00 98 1023.1
20260831104402 62 273 1.0 2.0 0.00 0.01 0.00 100 1022.3
20260831103902 62 273 0.0 0.0 0.00 0.01 0.00 96 1022.2
20260831103018 61 273 0.0 2.0 0.00 0.01 0.00 98 1022.9
20260831102903 62 273 1.0 2.0 0.00 0.01 0.00 96 1022.2
20260831102403 62 273 1.0 2.0 0.00 0.01 0.00 100 1022.2
20260831101903 62 273 0.0 2.0 0.00 0.01 0.00 100 1022.1
20260831101526 61 273 1.0 2.0 0.00 0.01 0.00 98 1022.9
20260831101403 62 273 1.0 2.0 0.00 0.01 0.00 100 1022.2
20260831100903 62 273 1.0 2.0 0.00 0.01 0.00 100 1022.2
20260831100402 62 273 1.0 2.0 0.00 0.01 0.00 96 1022.2
20260831100034 61 273 0.0 2.0 0.00 0.01 0.00 98 1023.0
20260831094902 62 273 1.0 2.0 0.00 0.01 0.00 96 1022.1
20260831094512 62 273 0.0 2.0 0.00 0.01 0.00 98 1022.8
20260831094403 62 273 1.0 2.0 0.00 0.01 0.00 96 1022.0
20260831093902 62 273 1.0 2.0 0.00 0.01 0.00 96 1022.0
20260831093019 62 306 0.0 3.0 0.00 0.01 0.00 98 1022.8
20260831092903 62 306 1.0 3.0 0.00 0.01 0.00 96 1022.1
20260831092403 62 306 0.0 2.0 0.00 0.01 0.00 96 1022.1